Location: Bear Trap Landing
(45.2437°N, 67.7928°W)
Time: 08:37:33
(UTC+00:00)

ISS - Visible Passes

Search period start: 06 March 2021 00:00
Search period end: 16 March 2021 00:00
Orbit: 417 x 422 km, 51.6° (Epoch: 05 March)

Date Brightness Start Highest point End Pass type
(mag) Time Alt. Az. Time Alt. Az. Time Alt. Az.
06 Mar -2.4 09:23:14 24° NNW 09:24:32 32° NNE 09:27:38 10° E visible
07 Mar -1.7 08:37:38 26° NNE 08:37:38 26° NNE 08:39:54 10° ENE visible
07 Mar -3.7 10:10:43 10° WNW 10:14:05 77° NNE 10:17:27 10° ESE visible
08 Mar -0.2 07:52:06 11° ENE 07:52:06 11° ENE 07:52:12 10° ENE visible
08 Mar -3.2 09:25:04 28° NW 09:26:35 54° NNE 09:29:52 10° ESE visible
09 Mar -2.3 08:39:36 36° NE 08:39:36 36° NE 08:42:12 10° E visible
09 Mar -3.3 10:12:38 10° WNW 10:15:51 43° SW 10:19:03 10° SE visible
10 Mar -0.3 07:54:14 12° ENE 07:54:14 12° ENE 07:54:30 10° E visible
10 Mar -3.8 09:27:13 36° WNW 09:28:26 69° SSW 09:31:46 10° SE visible
11 Mar -2.6 08:41:59 41° ESE 08:41:59 41° ESE 08:44:18 10° ESE visible
11 Mar -2.0 10:15:07 10° W 10:17:24 17° SW 10:19:40 10° S visible
12 Mar -2.7 09:29:54 27° SW 09:30:05 27° SW 09:32:58 10° SSE visible
13 Mar -1.4 08:45:01 16° SSE 08:45:01 16° SSE 08:45:54 10° SE visible
